Location: Eyeline Observatory
(43.2182°N, 78.8632°W)
Time: 22:25:26
(UTC-05:00)

OTV 5 (USA 277) - Pass Details

Date: 15 October 2017
Orbit: 404 x 417 km, 43.0° (Epoch: 07 September)

Event Time Altitude Azimuth Distance (km) Brightness Sun altitude
Rises 20:18:34 0° 272° (W) 2,354 ? -20.2°
Reaches altitude 10° 20:20:41 10° 272° (W) 1,491 ? -20.5°
Enters shadow 20:23:45 73° 265° (W) 439 ? -21.1°
